Regional Weather Roundup
Issued by NWS

Home | Current Version | Previous Version | Text Only | Print | Product List | Glossary Off
Versions: 1 2 3 4 5 6 7 8 9 10 11 12 13 14 15 16 17 18 19 20 21 22 23 24 25 26 27 28 29 30 31 32 33 34 35 36 37 38 39 40 41 42 43 44 45 46 47 48 49 50

144
ASUS45 KTFX 290610
RWRMT
MONTANA REGIONAL WEATHER ROUNDUP
NATIONAL WEATHER SERVICE GREAT FALLS MT
1200 AM MDT SAT APR 29 2017

NOTE: "FAIR" INDICATES FEW OR NO CLOUDS BELOW 12000 FEET WITH NO
SIGNIFICANT WEATHER AND/OR OBSTRUCTIONS TO VISIBILITY.

MTZ001>007-043-290700-
WEST OF THE DIVIDE

CITY           SKY/WX    TMP DP  RH WIND       PRES   REMARKS
KALISPELL      CLOUDY    39  39 100 CALM      30.19F
MISSOULA       CLOUDY    41  33  73 W3        30.23S
BUTTE          CLOUDY    39  27  62 CALM      30.18R
MULLAN PASS    CLOUDY    30  30 100 W7        30.18F WCI  23
ANACONDA         N/A     36  27  69 SW3       30.19R
DEER LODGE       N/A     37  30  75 N3        30.21S
EUREKA           N/A     43  39  87 SE10      30.17F
HAMILTON         N/A     39  30  70 N5        30.22S
LIBBY            N/A     43  39  87 CALM      30.19R
PLAINS           N/A     44  36  73 NW5       30.22R
$$

MTZ008-052>055-290700-
SOUTHWEST MONTANA

CITY           SKY/WX    TMP DP  RH WIND       PRES   REMARKS
BOZEMAN        CLOUDY    37  35  92 CALM      30.18S
DILLON         CLOUDY    34  28  79 E6        30.15R WCI  29
W YELLOWSTONE  CLOUDY    28  23  80 N5        30.13S
ENNIS          CLOUDY    34  30  86 N7        30.19S WCI  28
THREE FORKS      N/A     38  38 100 CALM      30.16R
TWIN BRIDGES     N/A     40  28  62 N10       30.12S
$$

MTZ009-010-012-014-046-048-049-054-290700-
EAST SLOPES AND CENTRAL MONTANA

CITY           SKY/WX    TMP DP  RH WIND       PRES   REMARKS
CUT BANK       CLOUDY    39  33  79 NE5       30.14F
GREAT FALLS    CLEAR     34  30  85 S6        30.18S WCI  29
MALMSTROM AFB  CLEAR     31  30  95 SW6       30.18F WCI  26
HELENA         CLOUDY    39  32  76 S3        30.18S
AUGUSTA          N/A     34  33  96 SE3       30.16S
BOWMANS CRNR     N/A     34  31  90 S8        30.15F WCI  27
CHOTEAU          N/A     37  36  93 S5        30.18S
FAIRFIELD      MOCLDY    37  33  83 S7        30.16S WCI  32
POWER            N/A     34  32  93 SW6       30.16S WCI  29
RAYNESFORD       N/A     32  31  96 E3        30.18S
ULM              N/A     32  30  95 SE3       30.18S
$$

MTZ011-013-016-021-045-047-050-051-290700-
NORTH CENTRAL MONTANA

CITY           SKY/WX    TMP DP  RH WIND       PRES   REMARKS
HAVRE          CLEAR     34  29  82 S8        30.17S WCI  27
LEWISTOWN      CLEAR     31  30  96 S5        30.19S
CHINOOK          N/A     36  28  75 SW3       30.18S
DENTON           N/A     32  31  96 MISG      30.15F
FORT BENTON      N/A     37  36  93 MISG      30.19S
GEYSER           N/A     33  30  90 SW9       30.17F WCI  25
GRASS RANGE    MOCLDY    36  34  92 SW9       30.15F WCI  29
JUDITH GAP       N/A     31  31 100 CALM      30.18S
STANFORD         N/A     30  28  90 W3        30.18S
WINIFRED         N/A     36  32  86 SW5       30.17S
$$

MTZ017>020-022>027-061-062-290700-
NORTHEAST MONTANA

CITY           SKY/WX    TMP DP  RH WIND       PRES   REMARKS
GLASGOW        CLOUDY    42  36  79 N5        30.16F
JORDAN           N/A     37  31  78 CALM      30.17S
SIDNEY         CLOUDY    36  24  62 CALM      30.17S
WOLF POINT     PTCLDY    39  32  76 W9        30.17R
PLENTYWOOD       N/A     39  34  81 N7        30.15S
POPLAR           N/A     43  25  49 N6        30.16S
SCOBEY           N/A     38  29  70 CALM      30.14R
$$

MTZ028>42-056>058-290700-
SOUTHCENTRAL AND SOUTHEAST MONTANA

CITY           SKY/WX    TMP DP  RH WIND       PRES   REMARKS
BAKER          CLOUDY    34  27  75 S9        30.19S WCI  27
BILLINGS       CLOUDY    41  35  79 CALM      30.18F
LIVINGSTON     CLOUDY    37  34  89 CALM      30.17S
MILES CITY     CLOUDY    39  30  70 NW6       30.17F
BIG TIMBER     CLOUDY    36  36 100 NE5       30.21S
EKALAKA          N/A     37  23  57 SE7       30.14S WCI  31
LAUREL           N/A     37  28  70 W3        30.15F
ROUNDUP          N/A     39  33  79 CALM      30.08F
$$

REGIONAL REPORTS...DAKOTAS

CITY           SKY/WX    TMP DP  RH WIND       PRES   REMARKS
WILLISTON      CLOUDY    43  25  49 CALM      30.16S
MINOT          CLEAR     40  21  46 CALM      30.17F
DICKINSON      CLEAR     29  16  58 S7        30.18R WCI  22
BEACH            N/A     32  25  74 S7        30.21S WCI  26
TIOGA            N/A     39  19  45 S10       30.17S
WATFORD CITY     N/A     36  25  64 CALM      30.17S
BISMARCK       CLEAR     33  24  69 CALM      30.21S
GRAND FORKS    CLEAR     35  28  75 NW3       30.20R
FARGO          CLEAR     32  25  75 CALM      30.20R
BUFFALO SD       N/A     40  26  57 SW3       30.13S
RAPID CITY     CLOUDY    36  20  52 CALM      30.19S
$$

REGIONAL REPORTS...WYOMING/IDAHO/WASHINGTON

CITY           SKY/WX    TMP DP  RH WIND       PRES   REMARKS
GILLETTE       CLOUDY    30  29  96 W9        30.18S WCI  22
SHERIDAN       CLOUDY    31  28  89 SW3       30.18F
BUFFALO WY     CLOUDY    31  18  58 W8        30.18F WCI  23
CODY           CLOUDY    35  29  78 NW3       30.18S
YELLOWSTONE LA   N/A     23  18  81 CALM      30.12F
IDAHO FALLS    CLOUDY    37  30  75 N9        30.10R WCI  30
SALMON         CLEAR     36  27  69 SE7       30.17S WCI  30
BOISE          CLEAR     45  30  55 W12       30.15R
SPOKANE        MOCLDY    48  34  58 CALM      30.19R
$$

REGIONAL REPORTS...ALBERTA

CITY           SKY/WX    TMP DP  RH WIND       PRES   REMARKS
EDMONTON       MOCLDY    41  27  56 S6        30.10S
CALGARY        MOCLDY    37  32  81 SW5       30.11S
LETHBRIDGE     PTCLDY    37  34  87 SW7       30.13F
MEDICINE HAT   MOCLDY    37  28  70 CALM      30.15S
WATERTON GATE    N/A     36  32  87 NW5         N/A
CARDSTON         N/A     34  32  93 S2          N/A
MILK RIVER       N/A     41  36  81 W7          N/A
$$

REGIONAL REPORTS...SASKATCHEWAN

CITY           SKY/WX    TMP DP  RH WIND       PRES   REMARKS
SWIFT CURRENT  MOCLDY    28  25  86 SW10      30.12S WCI  19
REGINA         CLOUDY    37  36  93 E6        30.13F
SASKATOON      PTCLDY    32  28  86 S6        30.10S WCI  26
VAL MARIE        N/A     34  30  86 NW1         N/A
ROCKGLEN         N/A     39  34  81 W1          N/A
$$




USA.gov is the U.S. government's official web portal to all federal, state and local government web resources and services.